[[{"header":{"parameterUnit":"m.s-1","parameterCategory":1,"la1":30.2991,"la2":30.254,"lo1":-89.0895,"lo2":-89.0444,"dy":0.0017,"dx":0.0017,"nx":28,"ny":28,"refTime":"2024-05-26T03:00:00:Z","depth":0,"parameterNumber":2,"parameterNumberName":"U-component_of_WINDS"},"data":[0,0,0,0,0,0,0,0,0,0,0,0,0,0,0,0,0,0,0,0,0,0,0,0,0,0,0,0,0,0,0,0,0,0,0,0,0,0,0,0,0,0,0,0,0,0,0,0,0,0,0,0,0,0,0,0,0,0,-1.9848,-1.9848,0,-1.9855,-1.9855,-1.9856,-1.9876,-1.9876,-1.9877,-1.9877,-1.9882,-1.9882,-1.9882,0,0,0,0,0,0,0,0,0,0,0,0,0,-1.985,-1.985,-1.9848,-1.9848,-1.9848,-1.9855,-1.9855,-1.9856,-1.9876,-1.9876,-1.9877,-1.9877,-1.9882,-1.9882,-1.9882,0,0,0,0,0,0,0,0,0,0,0,0,0,-1.9852,-1.985,-1.9848,-1.9859,-1.986,-1.9855,-1.9855,-1.9856,-1.9875,-1.9876,-1.9877,-1.9877,-1.9882,-1.9882,-1.9882,-1.9866,0,0,-1.988,-1.988,0,0,0,0,0,0,0,0,-1.9852,-1.9852,-1.9857,-1.9858,-1.9859,-1.9865,-1.9858,-1.9859,-1.9875,-1.987,-1.9877,-1.9878,-1.9876,-1.9876,-1.9876,-1.9866,-1.9866,-1.988,-1.988,-1.988,-1.988,0,0,0,0,0,0,0,-1.9852,-1.9852,-1.9851,-1.9857,-1.9859,-1.9863,-1.9864,-1.9858,-1.9869,-1.987,-1.9872,-1.9872,-1.9877,-1.9876,-1.9876,-1.9866,-1.988,-1.988,-1.988,-1.988,-1.9844,-1.9844,0,0,0,0,0,0,-1.985,-1.9852,-1.9851,-1.9851,-1.9857,-1.9863,-1.9864,-1.9863,-1.9869,-1.9871,-1.9872,-1.9873,-1.9877,-1.9877,-1.9876,-1.9858,-1.988,-1.988,-1.9879,-1.9845,-1.9844,-1.9843,0,0,0,0,0,0,-1.985,-1.985,-1.985,-1.9852,-1.9852,-1.9862,-1.986,-1.9862,-1.9862,-1.987,-1.9872,-1.9869,-1.9877,-1.9877,-1.9869,-1.9858,-1.9879,-1.9879,-1.9846,-1.9845,-1.9844,-1.9821,0,0,0,0,0,0,-1.985,-1.985,-1.9844,-1.9852,-1.9852,-1.9842,-1.986,-1.9862,-1.9862,-1.9864,-1.9869,-1.987,-1.9878,-1.9869,-1.9868,-1.9858,-1.9879,-1.9847,-1.9845,-1.9844,-1.9822,-1.9819,-1.9816,0,0,0,0,0,-1.985,-1.9837,-1.9844,-1.9843,-1.9845,-1.9842,-1.9842,-1.9852,-1.9861,-1.9855,-1.986,-1.987,-1.986,-1.9868,-1.9867,-1.9857,-1.9847,-1.9846,-1.9844,-1.9824,-1.982,-1.9816,0,0,0,0,0,0,-1.9827,-1.9838,-1.9846,-1.9834,-1.9837,-1.9845,-1.9838,-1.9847,-1.9846,-1.9848,-1.986,-1.9861,-1.985,-1.9853,-1.9862,-1.9842,-1.9855,-1.9854,-1.984,-1.9836,-1.9833,-1.9832,-1.9878,0,0,0,0,0,-1.9821,-1.9818,-1.9827,-1.9816,-1.9818,-1.9828,-1.9826,-1.9834,-1.9837,-1.9838,-1.9843,-1.9844,-1.9842,-1.984,-1.9838,-1.9824,-1.9825,-1.9817,-1.9814,-1.9811,-1.9808,-1.9801,-1.9797,-1.9838,-1.9838,-1.9838,0,0,-1.9807,-1.9813,-1.981,-1.9812,-1.9815,-1.9811,-1.9828,-1.9823,-1.982,-1.9837,-1.9829,-1.9833,-1.9836,-1.9824,-1.982,-1.9826,-1.9798,-1.9809,-1.9807,-1.9806,-1.9799,-1.9795,-1.9791,-1.9837,-1.9837,-1.9837,0,0,-1.978,-1.9785,-1.9776,-1.9779,-1.9784,-1.9791,-1.9789,-1.9796,-1.9799,-1.9792,-1.9804,-1.9801,-1.9797,-1.9798,-1.9798,-1.9774,-1.9782,-1.9773,-1.9756,-1.9748,-1.9745,-1.9742,-1.9732,-1.9728,-1.9771,-1.9771,-1.9771,0,-1.9762,-1.9757,-1.977,-1.9764,-1.9764,-1.9781,-1.9772,-1.9774,-1.9778,-1.9777,-1.9786,-1.9781,-1.9784,-1.9773,-1.9767,-1.9767,-1.9764,-1.9771,-1.9745,-1.9742,-1.9739,-1.973,-1.9726,-1.977,-1.977,-1.977,-1.977,0,-1.9734,-1.973,-1.9723,-1.9727,-1.9727,-1.9719,-1.9731,-1.9729,-1.9737,-1.9743,-1.9736,-1.9741,-1.974,-1.9739,-1.9746,-1.9729,-1.9733,-1.9743,-1.9756,-1.9734,-1.9725,-1.9722,-1.9768,-1.9768,-1.9769,-1.9769,0,0,-1.9689,-1.9702,-1.9699,-1.9701,-1.9709,-1.9706,-1.97,-1.97,-1.9698,-1.9701,-1.9695,-1.9691,-1.9701,-1.9701,-1.971,-1.9703,-1.9682,-1.9714,-1.9714,-1.9706,-1.9662,-1.9653,-1.9649,-1.9689,-1.9689,-1.9688,-1.9662,0,-1.9662,-1.9652,-1.9664,-1.9651,-1.9648,-1.9665,-1.966,-1.9663,-1.967,-1.9667,-1.9674,-1.9671,-1.9685,-1.9685,-1.968,-1.9686,-1.9673,-1.9689,-1.9683,-1.9682,-1.9679,-1.9644,-1.9634,-1.9609,-1.9658,-1.9658,-1.9657,0,-1.9628,-1.963,-1.9617,-1.9626,-1.9625,-1.962,-1.9621,-1.962,-1.9625,-1.963,-1.9631,-1.9642,-1.9636,-1.9651,-1.9642,-1.9652,-1.9651,-1.9654,-1.9653,-1.9651,-1.9666,-1.9639,-1.9601,-1.9596,-1.9652,-1.9653,-1.9653,0,-1.9594,-1.9594,-1.9586,-1.9588,-1.9599,-1.9594,-1.9599,-1.9605,-1.9604,-1.9606,-1.9606,-1.9607,-1.9607,-1.9607,-1.9617,-1.9628,-1.9607,-1.9623,-1.961,-1.961,-1.9602,-1.9602,-1.9561,-1.9606,-1.9606,-1.9606,-1.9606,0,-1.9561,-1.9552,-1.9571,-1.9566,-1.9556,-1.9571,-1.9561,-1.9567,-1.9573,-1.9569,-1.9585,-1.958,-1.9596,-1.9593,-1.9602,-1.9593,-1.9593,-1.9596,-1.9598,-1.9593,-1.9592,-1.959,-1.9591,-1.9605,-1.9605,-1.9605,-1.9606,0,-1.952,-1.9533,-1.9525,-1.9537,-1.954,-1.9532,-1.9542,-1.9538,-1.9546,-1.9541,-1.9541,-1.9553,-1.9551,-1.9563,-1.9563,-1.9568,-1.9554,-1.9561,-1.9552,-1.9553,-1.9539,-1.9539,-1.9493,-1.9487,-1.9538,-1.9537,-1.9537,0,-1.9497,-1.949,-1.9502,-1.9501,-1.9505,-1.9503,-1.9503,-1.9518,-1.9518,-1.9524,-1.9519,-1.9518,-1.9518,-1.9514,-1.9523,-1.9523,-1.9528,-1.9512,-1.9528,-1.9523,-1.9525,-1.9524,-1.9523,-1.9507,-1.9507,-1.9506,-1.9506,0,-1.9453,-1.946,-1.946,-1.9463,-1.9463,-1.9465,-1.9469,-1.9467,-1.9484,-1.9483,-1.9481,-1.9482,-1.9483,-1.9481,-1.9484,-1.9488,-1.9499,-1.9502,-1.9498,-1.9491,-1.9486,-1.9487,-1.9541,-1.9502,-1.9502,-1.9502,-1.9502,-1.9503,-1.9418,-1.9413,-1.9421,-1.9421,-1.9426,-1.9429,-1.9425,-1.9434,-1.9434,-1.9436,-1.9446,-1.9442,-1.9449,-1.9453,-1.9456,-1.9454,-1.9461,-1.9456,-1.9455,-1.9453,-1.9449,-1.9489,-1.9454,-1.9455,-1.9455,-1.9455,-1.9455,0,-1.9373,-1.938,-1.938,-1.9385,-1.9385,-1.9398,-1.9403,-1.9402,-1.9399,-1.9405,-1.9405,-1.9404,-1.9404,-1.9414,-1.9414,-1.941,-1.9415,-1.941,-1.9408,-1.9409,-1.9444,-1.9445,-1.9405,-1.9405,-1.9405,-1.9405,-1.9405,-1.9405,-1.935,-1.9342,-1.935,-1.9345,-1.9352,-1.9349,-1.9351,-1.9354,-1.9358,-1.9356,-1.9357,-1.9364,-1.9371,-1.9373,-1.9373,-1.9376,-1.9375,-1.9366,-1.9371,-1.9402,-1.9407,-1.9411,-1.9413,-1.9367,-1.9367,-1.9336,-1.9336,-1.9336]},{"header":{"parameterUnit":"m.s-1","parameterCategory":1,"la1":30.2991,"la2":30.254,"lo1":-89.0895,"lo2":-89.0444,"dy":0.0017,"dx":0.0017,"nx":28,"ny":28,"refTime":"2024-05-26T03:00:00:Z","depth":0,"parameterNumber":3,"parameterNumberName":"V-component_of_WINDS"},"data":[0,0,0,0,0,0,0,0,0,0,0,0,0,0,0,0,0,0,0,0,0,0,0,0,0,0,0,0,0,0,0,0,0,0,0,0,0,0,0,0,0,0,0,0,0,0,0,0,0,0,0,0,0,0,0,0,0,0,6.5891,6.5892,0,6.5994,6.5996,6.5997,6.5968,6.5966,6.5964,6.5962,6.6061,6.6065,6.607,0,0,0,0,0,0,0,0,0,0,0,0,0,6.5663,6.5667,6.5891,6.5892,6.5894,6.5994,6.5996,6.5997,6.5969,6.5966,6.5963,6.5961,6.6059,6.6065,6.607,0,0,0,0,0,0,0,0,0,0,0,0,0,6.5763,6.5669,6.5891,6.5892,6.5893,6.5994,6.5996,6.5997,6.5969,6.5966,6.5963,6.596,6.6057,6.6064,6.6071,6.6175,0,0,6.6092,6.6095,0,0,0,0,0,0,0,0,6.5758,6.5772,6.589,6.5892,6.5893,6.5965,6.5951,6.6057,6.597,6.594,6.5962,6.5958,6.6031,6.604,6.6066,6.618,6.6184,6.6092,6.6096,6.6099,6.6101,0,0,0,0,0,0,0,6.5751,6.5767,6.5932,6.5892,6.5894,6.5885,6.5896,6.5971,6.6001,6.5942,6.5941,6.5954,6.6031,6.6059,6.6068,6.6185,6.6092,6.6098,6.6102,6.6105,6.639,6.6393,0,0,0,0,0,0,6.5744,6.5762,6.5928,6.5935,6.5817,6.5892,6.5904,6.5945,6.6001,6.6006,6.5956,6.5952,6.6049,6.606,6.6071,6.6198,6.6099,6.6106,6.611,6.6387,6.6391,6.6394,0,0,0,0,0,0,6.5739,6.5759,6.5924,6.5848,6.5868,6.5899,6.5946,6.5949,6.5977,6.6011,6.6016,6.598,6.6047,6.6062,6.615,6.62,6.6109,6.6115,6.6382,6.6388,6.6393,6.6451,0,0,0,0,0,0,6.5732,6.5757,6.5799,6.5849,6.5873,6.6004,6.5949,6.5953,6.599,6.5985,6.6034,6.6039,6.6046,6.614,6.6157,6.6208,6.612,6.6378,6.6385,6.6391,6.6444,6.6457,6.6468,0,0,0,0,0,6.5724,6.5809,6.5801,6.5821,6.5925,6.6007,6.602,6.6027,6.5994,6.6035,6.6057,6.6038,6.6192,6.6149,6.6168,6.6222,6.6375,6.6383,6.639,6.6439,6.6455,6.6468,0,0,0,0,0,0,6.5761,6.5816,6.5807,6.5912,6.5955,6.6002,6.6054,6.6044,6.6095,6.6089,6.6094,6.6105,6.6196,6.6217,6.6169,6.6326,6.6278,6.629,6.6309,6.6324,6.6336,6.6328,6.6126,0,0,0,0,0,6.5782,6.5846,6.5889,6.5976,6.5999,6.6023,6.6058,6.6061,6.6105,6.6122,6.6151,6.6192,6.625,6.6288,6.6343,6.6447,6.6457,6.6493,6.6505,6.6515,6.6525,6.6582,6.6599,6.642,6.642,6.642,0,0,6.5824,6.5862,6.5902,6.5985,6.6019,6.6083,6.6038,6.6108,6.6155,6.6132,6.6219,6.6241,6.6287,6.6384,6.6428,6.6405,6.6577,6.6525,6.6532,6.6538,6.6592,6.6609,6.6624,6.6425,6.6425,6.6424,0,0,6.5935,6.597,6.6048,6.6084,6.6137,6.6152,6.617,6.6219,6.6234,6.6321,6.6306,6.636,6.646,6.6494,6.6525,6.6649,6.6633,6.6667,6.6729,6.6784,6.6798,6.6811,6.6855,6.6871,6.6677,6.6677,6.6677,0,6.5981,6.6079,6.6088,6.616,6.6197,6.6182,6.6259,6.6292,6.636,6.6384,6.6358,6.6484,6.6514,6.6619,6.665,6.6675,6.6695,6.6661,6.6796,6.6808,6.682,6.6863,6.6879,6.668,6.668,6.668,6.6679,0,6.6133,6.6201,6.6257,6.6326,6.6368,6.6442,6.6461,6.6502,6.6501,6.6519,6.6607,6.6643,6.6706,6.673,6.6728,6.6835,6.6819,6.6795,6.6747,6.6841,6.6881,6.6897,6.6686,6.6684,6.6683,6.6682,0,0,6.6269,6.6343,6.6364,6.6395,6.6453,6.6504,6.6577,6.6641,6.6677,6.6723,6.6784,6.6869,6.6847,6.6881,6.6883,6.6931,6.7028,6.69,6.6901,6.6923,6.7148,6.7166,6.7185,6.7018,6.7021,6.7024,6.7144,0,6.6386,6.6517,6.6528,6.6645,6.6708,6.6695,6.6758,6.6799,6.6817,6.6871,6.689,6.6951,6.6917,6.6938,6.6985,6.7006,6.7073,6.6998,6.7073,6.7075,6.7062,6.7206,6.7226,6.7338,6.7159,6.7162,6.7164,0,6.6539,6.6594,6.6718,6.6768,6.6795,6.6852,6.6911,6.6964,6.7009,6.7019,6.7058,6.7054,6.7126,6.7076,6.7176,6.7124,6.7155,6.717,6.7175,6.7182,6.7126,6.7217,6.7373,6.739,6.7189,6.7187,6.7185,0,6.6627,6.6731,6.6819,6.6846,6.6906,6.6947,6.6973,6.7016,6.7054,6.7105,6.7129,6.7187,6.7218,6.7262,6.7272,6.7235,6.7372,6.7322,6.7381,6.7381,6.741,6.7408,6.7574,6.743,6.743,6.743,6.7429,0,6.6756,6.6833,6.686,6.6914,6.6999,6.701,6.7093,6.7116,6.7155,6.7212,6.7202,6.7256,6.7266,6.7321,6.7329,6.741,6.7424,6.7433,6.7434,6.7434,6.7433,6.7454,6.7447,6.7434,6.7433,6.7432,6.7432,0,6.6869,6.689,6.6986,6.7036,6.705,6.711,6.7152,6.7203,6.722,6.7293,6.731,6.7336,6.74,6.7415,6.749,6.7496,6.7592,6.7586,6.7578,6.7577,6.7635,6.763,6.782,6.7846,6.7685,6.7687,6.7688,0,6.695,6.7009,6.7066,6.7105,6.7134,6.7197,6.7236,6.7248,6.7288,6.7346,6.7389,6.7453,6.7505,6.7607,6.7632,6.7689,6.7684,6.7747,6.7692,6.7691,6.7685,6.7682,6.7687,6.7757,6.7759,6.776,6.7761,0,6.7092,6.71,6.7158,6.7221,6.7269,6.7318,6.7364,6.7396,6.7414,6.746,6.7527,6.7567,6.7645,6.7708,6.7766,6.779,6.7779,6.7779,6.7795,6.7796,6.7789,6.7794,6.7606,6.7774,6.7773,6.7772,6.7771,6.7771,6.7192,6.7244,6.7293,6.7358,6.7395,6.7439,6.749,6.7515,6.7572,6.7638,6.7641,6.7714,6.7757,6.7834,6.7862,6.7917,6.7898,6.7922,6.7928,6.7934,6.7939,6.778,6.7928,6.7927,6.7927,6.7927,6.7927,0,6.7333,6.7365,6.7425,6.7492,6.7543,6.753,6.7581,6.7624,6.7689,6.7732,6.7784,6.786,6.7921,6.7951,6.8011,6.8049,6.8045,6.8065,6.8062,6.8068,6.7953,6.7933,6.8067,6.8067,6.8067,6.8067,6.8067,6.8067,6.7413,6.7502,6.7515,6.7621,6.7651,6.7724,6.7754,6.7794,6.7829,6.7916,6.7968,6.7987,6.8024,6.8087,6.8142,6.8149,6.8171,6.8193,6.8197,6.809,6.8076,6.8062,6.8043,6.8198,6.8198,6.8307,6.8308,6.8309]}]]